Time,TemperatureF,DewpointF,PressureIn,WindDirection,WindDirectionDegrees,WindSpeedMPH,WindSpeedGustMPH,Humidity,HourlyPrecipIn,Conditions,Clouds,dailyrainin,SoftwareType,DateUTC
2013-01-12 00:04:00,66.0,64.0,30.17,ENE,63,0.0,0.0,94,0.00,,,0.00,weatherlink.com 1.10,2013-01-12 05:04:00,
2013-01-12 00:19:00,65.7,64.0,30.17,ENE,63,0.0,0.0,94,0.00,,,0.00,weatherlink.com 1.10,2013-01-12 05:19:00,
2013-01-12 00:34:00,65.1,63.0,30.17,ENE,63,0.0,0.0,93,0.00,,,0.00,weatherlink.com 1.10,2013-01-12 05:34:00,
2013-01-12 00:50:00,64.4,62.0,30.17,ENE,63,0.0,0.0,93,0.00,,,0.00,weatherlink.com 1.10,2013-01-12 05:50:00,
2013-01-12 01:05:00,63.7,62.0,30.17,ENE,63,0.0,0.0,93,0.00,,,0.00,weatherlink.com 1.10,2013-01-12 06:05:00,
2013-01-12 01:20:00,63.0,61.0,30.17,ENE,63,0.0,0.0,93,0.00,,,0.00,weatherlink.com 1.10,2013-01-12 06:20:00,
2013-01-12 01:35:00,62.6,61.0,30.17,ENE,63,0.0,0.0,93,0.00,,,0.00,weatherlink.com 1.10,2013-01-12 06:35:00,
2013-01-12 01:50:00,62.1,60.0,30.16,ENE,63,0.0,0.0,94,0.00,,,0.00,weatherlink.com 1.10,2013-01-12 06:50:00,
2013-01-12 02:05:00,61.5,60.0,30.16,ENE,63,0.0,0.0,93,0.00,,,0.00,weatherlink.com 1.10,2013-01-12 07:05:00,
2013-01-12 02:20:00,60.9,59.0,30.16,ENE,63,0.0,0.0,93,0.00,,,0.00,weatherlink.com 1.10,2013-01-12 07:20:00,
2013-01-12 02:35:00,60.6,59.0,30.16,ENE,63,0.0,0.0,94,0.00,,,0.00,weatherlink.com 1.10,2013-01-12 07:35:00,
2013-01-12 02:50:00,60.1,58.0,30.16,ENE,63,0.0,0.0,94,0.00,,,0.00,weatherlink.com 1.10,2013-01-12 07:50:00,
2013-01-12 03:05:00,59.6,58.0,30.15,ENE,63,0.0,0.0,94,0.00,,,0.00,weatherlink.com 1.10,2013-01-12 08:05:00,
2013-01-12 03:20:00,59.5,58.0,30.15,ENE,63,0.0,0.0,94,0.00,,,0.00,weatherlink.com 1.10,2013-01-12 08:20:00,
2013-01-12 03:35:00,59.3,58.0,30.15,ENE,63,0.0,0.0,94,0.00,,,0.00,weatherlink.com 1.10,2013-01-12 08:35:00,
2013-01-12 03:50:00,59.1,58.0,30.15,ENE,63,0.0,0.0,95,0.00,,,0.00,weatherlink.com 1.10,2013-01-12 08:50:00,
2013-01-12 04:05:00,58.9,58.0,30.14,ENE,63,0.0,0.0,95,0.00,,,0.00,weatherlink.com 1.10,2013-01-12 09:05:00,
2013-01-12 04:20:00,58.5,57.0,30.14,ENE,63,0.0,0.0,94,0.00,,,0.00,weatherlink.com 1.10,2013-01-12 09:20:00,
2013-01-12 04:35:00,58.1,57.0,30.14,ENE,63,0.0,0.0,95,0.00,,,0.00,weatherlink.com 1.10,2013-01-12 09:35:00,
2013-01-12 04:50:00,57.7,56.0,30.14,ENE,63,0.0,0.0,95,0.00,,,0.00,weatherlink.com 1.10,2013-01-12 09:50:00,
2013-01-12 05:05:00,57.4,56.0,30.14,ENE,63,0.0,0.0,95,0.00,,,0.00,weatherlink.com 1.10,2013-01-12 10:05:00,
2013-01-12 05:20:00,57.1,56.0,30.14,ENE,63,0.0,0.0,95,0.00,,,0.00,weatherlink.com 1.10,2013-01-12 10:20:00,
2013-01-12 05:35:00,56.8,55.0,30.14,ENE,63,0.0,0.0,95,0.00,,,0.00,weatherlink.com 1.10,2013-01-12 10:35:00,
2013-01-12 05:50:00,56.7,55.0,30.15,ENE,63,0.0,0.0,95,0.00,,,0.00,weatherlink.com 1.10,2013-01-12 10:50:00,
2013-01-12 06:05:00,56.6,55.0,30.15,ENE,63,0.0,0.0,95,0.00,,,0.00,weatherlink.com 1.10,2013-01-12 11:05:00,
2013-01-12 06:20:00,56.5,55.0,30.15,ENE,63,0.0,0.0,95,0.00,,,0.00,weatherlink.com 1.10,2013-01-12 11:20:00,
2013-01-12 06:35:00,56.5,55.0,30.16,ENE,63,0.0,0.0,96,0.00,,,0.00,weatherlink.com 1.10,2013-01-12 11:35:00,
2013-01-12 06:50:00,56.9,56.0,30.16,ENE,63,0.0,0.0,96,0.00,,,0.00,weatherlink.com 1.10,2013-01-12 11:50:00,
2013-01-12 07:05:00,56.8,56.0,30.16,ENE,63,0.0,0.0,96,0.00,,,0.00,weatherlink.com 1.10,2013-01-12 12:05:00,
2013-01-12 07:20:00,56.5,55.0,30.16,ENE,63,0.0,0.0,96,0.00,,,0.00,weatherlink.com 1.10,2013-01-12 12:20:00,
2013-01-12 07:35:00,56.4,55.0,30.17,ENE,63,0.0,0.0,96,0.00,,,0.00,weatherlink.com 1.10,2013-01-12 12:35:00,
2013-01-12 07:50:00,56.6,56.0,30.17,ENE,63,0.0,0.0,96,0.00,,,0.00,weatherlink.com 1.10,2013-01-12 12:50:00,
2013-01-12 08:05:00,56.8,56.0,30.17,ENE,63,0.0,0.0,96,0.00,,,0.00,weatherlink.com 1.10,2013-01-12 13:05:00,
2013-01-12 08:20:00,57.8,57.0,30.18,ENE,63,0.0,0.0,97,0.00,,,0.00,weatherlink.com 1.10,2013-01-12 13:20:00,
2013-01-12 08:35:00,63.7,63.0,30.18,ENE,63,0.0,0.0,98,0.00,,,0.00,weatherlink.com 1.10,2013-01-12 13:35:00,
2013-01-12 08:50:00,65.8,65.0,30.18,ENE,63,0.0,1.0,98,0.00,,,0.00,weatherlink.com 1.10,2013-01-12 13:50:00,
2013-01-12 09:05:00,67.2,67.0,30.18,NNE,27,0.0,3.0,98,0.00,,,0.00,weatherlink.com 1.10,2013-01-12 14:05:00,
2013-01-12 09:20:00,69.0,68.0,30.19,NE,47,1.0,5.0,95,0.00,,,0.00,weatherlink.com 1.10,2013-01-12 14:20:00,
2013-01-12 09:36:00,70.6,68.0,30.19,NE,40,0.0,4.0,92,0.00,,,0.00,weatherlink.com 1.10,2013-01-12 14:36:00,
2013-01-12 09:51:00,72.3,69.0,30.19,ENE,71,0.0,2.0,88,0.00,,,0.00,weatherlink.com 1.10,2013-01-12 14:51:00,
2013-01-12 10:06:00,73.4,69.0,30.18,NE,35,0.0,2.0,86,0.00,,,0.00,weatherlink.com 1.10,2013-01-12 15:06:00,
2013-01-12 10:21:00,74.6,69.0,30.18,ESE,108,0.0,5.0,83,0.00,,,0.00,weatherlink.com 1.10,2013-01-12 15:21:00,
2013-01-12 10:36:00,75.4,69.0,30.18,SE,144,2.0,3.0,81,0.00,,,0.00,weatherlink.com 1.10,2013-01-12 15:36:00,
2013-01-12 10:51:00,76.0,69.0,30.17,NNE,30,2.0,6.0,78,0.00,,,0.00,weatherlink.com 1.10,2013-01-12 15:51:00,
2013-01-12 11:06:00,77.1,69.0,30.16,SSE,150,0.0,5.0,75,0.00,,,0.00,weatherlink.com 1.10,2013-01-12 16:06:00,
2013-01-12 11:21:00,77.9,68.0,30.16,NE,49,0.0,7.0,71,0.00,,,0.00,weatherlink.com 1.10,2013-01-12 16:21:00,
2013-01-12 11:36:00,79.1,69.0,30.15,East,98,2.0,7.0,70,0.00,,,0.00,weatherlink.com 1.10,2013-01-12 16:36:00,
2013-01-12 11:51:00,79.6,68.0,30.14,SE,124,2.0,5.0,67,0.00,,,0.00,weatherlink.com 1.10,2013-01-12 16:51:00,
2013-01-12 12:06:00,79.2,67.0,30.13,East,81,1.0,7.0,66,0.00,,,0.00,weatherlink.com 1.10,2013-01-12 17:06:00,
2013-01-12 12:21:00,77.8,66.0,30.12,NE,41,0.0,8.0,68,0.00,,,0.00,weatherlink.com 1.10,2013-01-12 17:21:00,
2013-01-12 12:36:00,78.8,68.0,30.12,ENE,75,3.0,7.0,69,0.00,,,0.00,weatherlink.com 1.10,2013-01-12 17:36:00,
2013-01-12 12:51:00,80.8,67.0,30.11,NE,37,3.0,8.0,63,0.00,,,0.00,weatherlink.com 1.10,2013-01-12 17:51:00,
2013-01-12 13:06:00,81.5,67.0,30.10,NNE,24,5.0,6.0,61,0.00,,,0.00,weatherlink.com 1.10,2013-01-12 18:06:00,
2013-01-12 13:21:00,82.0,67.0,30.09,ESE,113,0.0,7.0,61,0.00,,,0.00,weatherlink.com 1.10,2013-01-12 18:21:00,
2013-01-12 13:36:00,82.2,67.0,30.09,SSE,161,2.0,7.0,61,0.00,,,0.00,weatherlink.com 1.10,2013-01-12 18:36:00,
2013-01-12 13:51:00,80.8,66.0,30.09,NE,49,5.0,10.0,62,0.00,,,0.00,weatherlink.com 1.10,2013-01-12 18:51:00,
2013-01-12 14:06:00,81.8,68.0,30.09,East,85,0.0,4.0,63,0.00,,,0.00,weatherlink.com 1.10,2013-01-12 19:06:00,
2013-01-12 14:21:00,82.4,66.0,30.09,East,80,1.0,4.0,57,0.00,,,0.00,weatherlink.com 1.10,2013-01-12 19:21:00,
2013-01-12 14:36:00,83.2,66.0,30.08,SSE,159,2.0,5.0,56,0.00,,,0.00,weatherlink.com 1.10,2013-01-12 19:36:00,
2013-01-12 14:51:00,82.4,66.0,30.08,NE,35,2.0,5.0,58,0.00,,,0.00,weatherlink.com 1.10,2013-01-12 19:51:00,
2013-01-12 15:06:00,81.7,64.0,30.08,NNE,26,1.0,4.0,56,0.00,,,0.00,weatherlink.com 1.10,2013-01-12 20:06:00,
2013-01-12 15:21:00,82.3,65.0,30.08,ENE,61,0.0,4.0,56,0.00,,,0.00,weatherlink.com 1.10,2013-01-12 20:21:00,
2013-01-12 15:36:00,81.2,64.0,30.08,NNE,24,6.0,6.0,57,0.00,,,0.00,weatherlink.com 1.10,2013-01-12 20:36:00,
2013-01-12 15:51:00,81.2,65.0,30.08,South,176,1.0,5.0,59,0.00,,,0.00,weatherlink.com 1.10,2013-01-12 20:51:00,
2013-01-12 16:06:00,81.0,66.0,30.08,ESE,119,1.0,2.0,60,0.00,,,0.00,weatherlink.com 1.10,2013-01-12 21:06:00,
2013-01-12 16:21:00,81.4,66.0,30.09,ENE,63,0.0,3.0,59,0.00,,,0.00,weatherlink.com 1.10,2013-01-12 21:21:00,
2013-01-12 16:36:00,81.0,65.0,30.09,SE,146,0.0,4.0,59,0.00,,,0.00,weatherlink.com 1.10,2013-01-12 21:36:00,
2013-01-12 16:51:00,80.2,66.0,30.09,ESE,107,0.0,1.0,62,0.00,,,0.00,weatherlink.com 1.10,2013-01-12 21:51:00,
2013-01-12 17:06:00,78.5,66.0,30.10,NE,42,2.0,4.0,66,0.00,,,0.00,weatherlink.com 1.10,2013-01-12 22:06:00,
2013-01-12 17:21:00,77.5,66.0,30.10,NE,53,1.0,3.0,68,0.00,,,0.00,weatherlink.com 1.10,2013-01-12 22:21:00,
2013-01-12 17:36:00,77.3,66.0,30.10,NE,34,0.0,2.0,68,0.00,,,0.00,weatherlink.com 1.10,2013-01-12 22:36:00,
2013-01-12 17:51:00,77.1,66.0,30.10,NE,34,0.0,0.0,69,0.00,,,0.00,weatherlink.com 1.10,2013-01-12 22:51:00,
2013-01-12 18:06:00,76.3,66.0,30.10,NE,39,0.0,0.0,71,0.00,,,0.00,weatherlink.com 1.10,2013-01-12 23:06:00,
2013-01-12 18:21:00,75.6,66.0,30.10,NE,46,0.0,0.0,71,0.00,,,0.00,weatherlink.com 1.10,2013-01-12 23:21:00,
2013-01-12 18:36:00,75.1,66.0,30.10,NE,47,0.0,0.0,73,0.00,,,0.00,weatherlink.com 1.10,2013-01-12 23:36:00,
2013-01-12 18:51:00,74.6,66.0,30.11,NE,47,0.0,0.0,74,0.00,,,0.00,weatherlink.com 1.10,2013-01-12 23:51:00,
2013-01-12 19:07:00,74.2,66.0,30.11,NE,47,0.0,0.0,75,0.00,,,0.00,weatherlink.com 1.10,2013-01-13 00:07:00,
2013-01-12 19:22:00,73.7,66.0,30.11,ENE,57,0.0,3.0,76,0.00,,,0.00,weatherlink.com 1.10,2013-01-13 00:22:00,
2013-01-12 19:36:00,73.3,66.0,30.11,NE,49,1.0,4.0,77,0.00,,,0.00,weatherlink.com 1.10,2013-01-13 00:36:00,
2013-01-12 19:52:00,72.7,66.0,30.11,ENE,74,0.0,4.0,79,0.00,,,0.00,weatherlink.com 1.10,2013-01-13 00:52:00,
2013-01-12 20:07:00,72.1,66.0,30.11,NE,40,1.0,4.0,81,0.00,,,0.00,weatherlink.com 1.10,2013-01-13 01:07:00,
2013-01-12 20:22:00,71.6,66.0,30.11,NNE,28,1.0,3.0,82,0.00,,,0.00,weatherlink.com 1.10,2013-01-13 01:22:00,
2013-01-12 20:37:00,71.1,66.0,30.11,ENE,65,1.0,3.0,83,0.00,,,0.00,weatherlink.com 1.10,2013-01-13 01:37:00,
2013-01-12 20:52:00,70.6,66.0,30.11,ENE,65,0.0,1.0,84,0.00,,,0.00,weatherlink.com 1.10,2013-01-13 01:52:00,
2013-01-12 21:07:00,70.1,65.0,30.10,East,84,0.0,1.0,85,0.00,,,0.00,weatherlink.com 1.10,2013-01-13 02:07:00,
2013-01-12 21:22:00,69.5,65.0,30.10,East,85,0.0,1.0,86,0.00,,,0.00,weatherlink.com 1.10,2013-01-13 02:22:00,
2013-01-12 21:37:00,69.2,65.0,30.10,East,84,0.0,1.0,87,0.00,,,0.00,weatherlink.com 1.10,2013-01-13 02:37:00,
2013-01-12 21:52:00,68.9,65.0,30.10,East,85,0.0,0.0,88,0.00,,,0.00,weatherlink.com 1.10,2013-01-13 02:52:00,
2013-01-12 22:07:00,68.5,65.0,30.10,East,85,0.0,0.0,88,0.00,,,0.00,weatherlink.com 1.10,2013-01-13 03:07:00,
2013-01-12 22:22:00,68.1,65.0,30.09,East,84,0.0,1.0,89,0.00,,,0.00,weatherlink.com 1.10,2013-01-13 03:22:00,
2013-01-12 22:37:00,67.7,65.0,30.10,SE,133,0.0,2.0,90,0.00,,,0.00,weatherlink.com 1.10,2013-01-13 03:37:00,
2013-01-12 22:52:00,67.5,65.0,30.09,SE,144,0.0,3.0,91,0.00,,,0.00,weatherlink.com 1.10,2013-01-13 03:52:00,
2013-01-12 23:07:00,67.3,65.0,30.10,SE,144,0.0,1.0,91,0.00,,,0.00,weatherlink.com 1.10,2013-01-13 04:07:00,
2013-01-12 23:22:00,67.1,65.0,30.10,SE,144,0.0,0.0,91,0.00,,,0.00,weatherlink.com 1.10,2013-01-13 04:22:00,
2013-01-12 23:37:00,66.8,64.0,30.10,SE,144,0.0,0.0,91,0.00,,,0.00,weatherlink.com 1.10,2013-01-13 04:37:00,
2013-01-12 23:52:00,66.4,64.0,30.10,SE,144,0.0,0.0,92,0.00,,,0.00,weatherlink.com 1.10,2013-01-13 04:52:00,